Minot AFB, ND

12:52 AM CST on January 19, 2018 (GMT -0600)
Minot Air Force Base

Weather History for KMIB - November, 2013

Change the Weather History Date:

Saturday, November 2, 2013

  Actual Average Record
Temperature  
Mean Temperature 40 °F -  
Max Temperature 54 °F 40 °F 59 °F (2001)
Min Temperature 25 °F 22 °F 3 °F (2006)
Degree Days  
Heating Degree Days 26    
Moisture  
Dew Point 28 °F    
Average Humidity 72    
Maximum Humidity 97    
Minimum Humidity 32    
Precipitation  
Precipitation 0.00 in - - ()
Sea Level Pressure  
Sea Level Pressure 30.00 in    
Wind  
Wind Speed 8 mph (SW)    
Max Wind Speed 13 mph    
Max Gust Speed -    
Visibility 10 miles    
Events      
Averages and records for this station are not official NWS values.
T = Trace of Precipitation, MM = Missing Value Source: NWS Daily Summary

Daily Weather History Graph

Daily Weather History Graph

Search for Another Location

Airport or City:

Trip Planner

Search our weather history database for the weather conditions in past years. The results will help you decide how hot, cold, wet, or windy it might be!

Date:

Astronomy

Nov. 02, 2013 Rise Set
Actual Time 8:33 AM CDT 6:23 PM CDT
Civil Twilight 8:00 AM CDT 6:56 PM CDT
Nautical Twilight 7:23 AM CDT 7:33 PM CDT
Astronomical Twilight 6:46 AM CDT 8:10 PM CDT
Moon 7:29 AM CDT (11/2) 5:58 PM CDT (11/2)
Length of Visible Light 10h 56m
Length of Day
9h 50m
Waning Crescent, 1% of the Moon is Illuminated
Nov 2
Waning Crescent
Nov 3
New
Nov 9
First Quarter
Nov 17
Full
Nov 25
Last Quarter

Hourly Weather History & Observations

Time (CDT) Temp. Windchill Dew Point Humidity Pressure Visibility Wind Dir Wind Speed Gust Speed Precip Events Conditions
12:58 AM 33.1 °F 24.9 °F 30.4 °F 90% 30.02 in 10.0 mi WNW 10.4 mph - N/A   Clear
1:58 AM 32.4 °F 26.0 °F 29.5 °F 89% 30.04 in 10.0 mi WNW 6.9 mph - N/A   Clear
2:58 AM 28.4 °F 20.4 °F 26.8 °F 94% 30.06 in 10.0 mi West 8.1 mph - N/A   Clear
3:58 AM 25.9 °F 20.3 °F 25.2 °F 97% 30.05 in 10.0 mi West 4.6 mph - N/A   Clear
4:58 AM 27.5 °F 18.0 °F 26.2 °F 95% 30.06 in 10.0 mi West 10.4 mph - N/A   Clear
5:58 AM 27.7 °F 18.8 °F 26.1 °F 94% 30.06 in 10.0 mi WSW 9.2 mph - N/A   Clear
6:58 AM 25.5 °F 18.7 °F 24.1 °F 94% 30.06 in 10.0 mi WSW 5.8 mph - N/A   Clear
7:58 AM 28.2 °F 19.5 °F 25.7 °F 90% 30.06 in 10.0 mi WSW 9.2 mph - N/A   Clear
8:58 AM 27.0 °F 21.6 °F 24.8 °F 92% 30.05 in 10.0 mi WSW 4.6 mph - N/A   Clear
9:58 AM 31.8 °F 25.4 °F 29.1 °F 90% 30.07 in 10.0 mi West 6.9 mph - N/A   Clear
10:58 AM 37.9 °F 34.4 °F 31.3 °F 77% 30.06 in 10.0 mi West 4.6 mph - N/A   Clear
11:58 AM 45.7 °F 44.4 °F 33.1 °F 61% 30.03 in 10.0 mi West 3.5 mph - N/A   Clear
12:58 PM 49.8 °F - 33.3 °F 53% 30.03 in 10.0 mi SW 6.9 mph - N/A   Clear
1:58 PM 52.3 °F - 29.7 °F 42% 29.99 in 10.0 mi SW 4.6 mph - N/A   Clear
2:58 PM 54.5 °F - 26.2 °F 34% 29.97 in 10.0 mi Variable 4.6 mph - N/A   Clear
3:58 PM 54.0 °F - 24.6 °F 32% 29.95 in 10.0 mi SSE 5.8 mph - N/A   Clear
4:58 PM 53.4 °F - 24.3 °F 32% 29.93 in 10.0 mi SSE 10.4 mph - N/A   Clear
5:58 PM 46.8 °F - 26.8 °F 46% 29.91 in 10.0 mi SE 6.9 mph - N/A   Clear
6:58 PM 39.9 °F 35.1 °F 27.9 °F 62% 29.93 in 10.0 mi SSE 6.9 mph - N/A   Clear
9:58 PM 42.8 °F 36.2 °F 28.6 °F 57% 29.86 in 10.0 mi SE 12.7 mph - N/A   Overcast
10:55 PM 29.3 °F 21.5 °F 28.0 °F 95% 29.99 in 10.0 mi West 8.1 mph - N/A   Clear
11:55 PM 41.0 °F 33.9 °F 30.2 °F 65% 29.75 in 10.0 mi SE 12.7 mph - N/A   Overcast